Location: Newark
(34.7667°N, 118.4167°W)
Time: 10:09:44
(UTC+00:00)

OTV 5 (USA 277) - Visible Passes

Search period start: 23 October 2019 00:00
Search period end: 02 November 2019 00:00
Orbit: 310 x 324 km, 54.5° (Epoch: 17 October)

Date Brightness Start Highest point End Pass type
(mag) Time Alt. Az. Time Alt. Az. Time Alt. Az.
26 Oct ? 02:59:35 10° SW 02:59:57 13° SW 02:59:57 13° SW visible
27 Oct ? 01:41:23 10° SSE 01:42:48 13° SE 01:43:54 11° E visible
27 Oct ? 03:14:33 10° W 03:14:49 12° W 03:14:49 12° W visible
28 Oct ? 01:54:33 10° SSW 01:57:09 44° SE 01:58:38 21° ENE visible
29 Oct ? 02:09:03 10° WSW 02:11:40 44° NW 02:13:13 20° NNE visible
30 Oct ? 02:24:31 10° W 02:26:21 16° NW 02:27:41 12° N visible
